Phoenix Deer Valley, AZ

11:18 PM MST on March 25, 2017 (GMT -0700)
Phoenix-Deer Valley Municipal

Weather History for KDVT - April, 2013

Change the Weather History Date:

Monday, April 8, 2013

  Actual Average Record
Temperature  
Mean Temperature 66 °F -  
Max Temperature 78 °F 74 °F 90 °F (2014)
Min Temperature 55 °F 51 °F 42 °F (1998)
Cooling Degree Days 2    
Growing Degree Days 16 (Base 50)    
Moisture  
Dew Point 39 °F    
Average Humidity 36    
Maximum Humidity 59    
Minimum Humidity 23    
Precipitation  
Precipitation 0.04 in - - ()
Sea Level Pressure  
Sea Level Pressure 29.46 in    
Wind  
Wind Speed 13 mph (SSW)    
Max Wind Speed 32 mph    
Max Gust Speed 41 mph    
Visibility 9 miles    
Events Rain    
Averages and records for this station are not official NWS values.
T = Trace of Precipitation, MM = Missing Value Source: NWS Daily Summary

Daily Weather History Graph

Daily Weather History Graph

Search for Another Location

Airport or City:

Trip Planner

Search our weather history database for the weather conditions in past years. The results will help you decide how hot, cold, wet, or windy it might be!

Date:

Astronomy

Apr. 08, 2013 Rise Set
Actual Time 6:06 AM MST 6:54 PM MST
Civil Twilight 5:40 AM MST 7:19 PM MST
Nautical Twilight 5:11 AM MST 7:49 PM MST
Astronomical Twilight 4:40 AM MST 8:20 PM MST
Moon 4:54 AM MST (4/8) 5:35 PM MST (4/8)
Length of Visible Light 13h 38m
Length of Day
12h 48m
Waning Crescent, 3% of the Moon is Illuminated
Apr 8
Waning Crescent
Apr 10
New
Apr 18
First Quarter
Apr 25
Full
May 2
Last Quarter

Hourly Weather History & Observations

Time (MST) Temp. Dew Point Humidity Pressure Visibility Wind Dir Wind Speed Gust Speed Precip Events Conditions
12:53 AM 70.0 °F 39.0 °F 32% 29.62 in 10.0 mi SSW 6.9 mph - N/A   Clear
1:53 AM 69.1 °F 39.9 °F 35% 29.60 in 10.0 mi South 5.8 mph - N/A   Clear
2:53 AM 66.9 °F 39.9 °F 37% 29.58 in 10.0 mi Calm Calm - N/A   Clear
3:53 AM 66.0 °F 39.0 °F 37% 29.56 in 10.0 mi Calm Calm - N/A   Clear
4:53 AM 64.9 °F 39.0 °F 39% 29.54 in 10.0 mi SE 8.1 mph - N/A   Clear
5:53 AM 63.0 °F 39.0 °F 41% 29.52 in 10.0 mi East 10.4 mph - N/A   Clear
6:53 AM 64.0 °F 37.0 °F 37% 29.52 in 10.0 mi SE 9.2 mph - N/A   Clear
7:53 AM 66.9 °F 37.0 °F 33% 29.50 in 10.0 mi SE 11.5 mph - N/A   Clear
8:53 AM 72.0 °F 37.0 °F 28% 29.48 in 10.0 mi South 15.0 mph 21.9 mph N/A   Clear
9:37 AM 73.4 °F 37.4 °F 27% 29.54 in 10.0 mi South 15.0 mph 24.2 mph N/A   Widespread Dust
9:53 AM 75.0 °F 37.9 °F 26% 29.47 in 10.0 mi SSW 16.1 mph 21.9 mph N/A   Widespread Dust
10:53 AM 77.0 °F 37.9 °F 24% 29.43 in 7.0 mi SW 28.8 mph 38.0 mph N/A   Widespread Dust
11:53 AM 77.0 °F 39.0 °F 25% 29.41 in 10.0 mi SW 26.5 mph 38.0 mph N/A   Widespread Dust
12:44 PM 78.8 °F 37.4 °F 23% 29.46 in 8.0 mi SW 32.2 mph 41.4 mph N/A   Widespread Dust
12:53 PM 77.0 °F 37.9 °F 24% 29.40 in 7.0 mi WSW 31.1 mph 41.4 mph N/A   Widespread Dust
1:11 PM 77.0 °F 37.4 °F 24% 29.45 in 4.0 mi WSW 28.8 mph 41.4 mph N/A   Haze
1:27 PM 77.0 °F 39.2 °F 26% 29.44 in 2.5 mi SW 24.2 mph 34.5 mph N/A   Haze
1:53 PM 78.1 °F 39.0 °F 25% 29.37 in 5.0 mi SW 28.8 mph 39.1 mph N/A   Haze
2:53 PM 75.0 °F 39.0 °F 27% 29.35 in 3.0 mi SW 28.8 mph 35.7 mph N/A   Haze
3:53 PM 73.9 °F 41.0 °F 30% 29.33 in 3.0 mi SW 24.2 mph 35.7 mph N/A   Haze
4:42 PM 66.2 °F 50.0 °F 56% 29.40 in 10.0 mi WNW 13.8 mph 25.3 mph 0.03 in Rain Light Rain
4:53 PM 64.0 °F 48.0 °F 56% 29.35 in 10.0 mi NW 18.4 mph 28.8 mph 0.03 in Rain Light Rain
5:53 PM 66.9 °F 41.0 °F 39% 29.37 in 10.0 mi NW 6.9 mph - 0.00 in   Widespread Dust
6:53 PM 63.0 °F 36.0 °F 37% 29.39 in 10.0 mi NW 25.3 mph 36.8 mph 0.00 in Rain Light Rain
7:53 PM 61.0 °F 35.1 °F 38% 29.44 in 10.0 mi WNW 12.7 mph - 0.00 in   Widespread Dust
8:53 PM 57.0 °F 37.0 °F 47% 29.47 in 10.0 mi WNW 15.0 mph 27.6 mph 0.01 in Rain Light Rain
9:53 PM 55.9 °F 39.9 °F 55% 29.45 in 10.0 mi SE 3.5 mph - 0.00 in   Widespread Dust
10:53 PM 55.9 °F 41.0 °F 57% 29.47 in 10.0 mi ESE 9.2 mph - N/A   Widespread Dust
11:53 PM 55.0 °F 41.0 °F 59% 29.48 in 10.0 mi SE 13.8 mph - N/A   Widespread Dust